Leeuwarden, Netherlands

10:50 PM CET on November 17, 2017 (GMT +0100)
Leeuwarden Air Base

Weather History for EHLW - May, 2013

Change the Weather History Date:

Monday, May 6, 2013

  Actual Average Record
Temperature  
Mean Temperature 56 °F -  
Max Temperature 70 °F 60 °F 75 °F (2006)
Min Temperature 42 °F 46 °F 37 °F (1997)
Degree Days  
Heating Degree Days 9    
Growing Degree Days 6 (Base 50)    
Moisture  
Dew Point 45 °F    
Average Humidity 69    
Maximum Humidity 93    
Minimum Humidity 30    
Precipitation  
Precipitation 0.00 in - - ()
Sea Level Pressure  
Sea Level Pressure 30.15 in    
Wind  
Wind Speed 5 mph ()    
Max Wind Speed 14 mph    
Max Gust Speed 21 mph    
Visibility 6.0 miles    
Events      
Averages and records for this station are not official NWS values.
T = Trace of Precipitation, MM = Missing Value Source: Averaged Metar Reports

Daily Weather History Graph

Daily Weather History Graph

Search for Another Location

Airport or City:

Trip Planner

Search our weather history database for the weather conditions in past years. The results will help you decide how hot, cold, wet, or windy it might be!

Date:

Astronomy

May. 06, 2013 Rise Set
Actual Time 5:53 AM CEST 9:14 PM CEST
Civil Twilight 5:11 AM CEST 9:56 PM CEST
Nautical Twilight 4:15 AM CEST 10:53 PM CEST
Astronomical Twilight 2:56 AM CEST 12:15 AM CEST
Moon 4:17 AM CEST (5/6) 5:33 PM CEST (5/6)
Length of Visible Light 16h 44m
Length of Day
15h 21m
Waning Crescent, 13% of the Moon is Illuminated
May 6
Waning Crescent
May 10
New
May 18
First Quarter
May 25
Full
May 31
Last Quarter

Hourly Weather History & Observations

Time (CEST) Temp. Windchill Dew Point Humidity Pressure Visibility Wind Dir Wind Speed Gust Speed Precip Events Conditions
12:25 AM 48.2 °F - 42.8 °F 82% 30.21 in 6.2 mi East 4.6 mph - N/A   Unknown
12:55 AM 48.2 °F - 41.0 °F 76% 30.21 in 6.2 mi East 5.8 mph - N/A   Unknown
1:25 AM 44.6 °F - 39.2 °F 81% 30.21 in 6.2 mi East 2.3 mph - N/A   Unknown
1:55 AM 48.2 °F - 42.8 °F 82% 30.21 in 6.2 mi ESE 2.3 mph - N/A   Unknown
2:00 AM 49 °F - 44 °F 75% 30.23 in 9 mi ESE 2.2 mph - -   Partly Cloudy
2:25 AM 48.2 °F - 42.8 °F 82% 30.21 in 6.2 mi East 2.3 mph - N/A   Unknown
2:55 AM 48.2 °F - 42.8 °F 82% 30.21 in 6.2 mi East 3.5 mph - N/A   Unknown
3:25 AM 50.0 °F - 42.8 °F 76% 30.21 in 6.2 mi ESE 5.8 mph - N/A   Unknown
3:55 AM 50.0 °F - 44.6 °F 82% 30.18 in 5.6 mi ESE 6.9 mph - N/A   Mist
4:21 AM 50.0 °F - 44.6 °F 82% 30.18 in 4.3 mi East 4.6 mph - N/A   Mist
4:25 AM 48.2 °F - 44.6 °F 87% 30.18 in 4.3 mi East 4.6 mph - N/A   Mist
4:55 AM 44.6 °F 43.1 °F 39.2 °F 81% 30.18 in 3.7 mi East 3.5 mph - N/A   Mist
5:05 AM 42.8 °F 40.1 °F 39.2 °F 87% 30.18 in - East 4.6 mph - N/A   Mist
5:11 AM 42.8 °F 40.1 °F 39.2 °F 87% 30.18 in 3.1 mi East 4.6 mph - N/A   Mist
5:12 AM 42.8 °F 40.1 °F 39.2 °F 87% 30.18 in - East 4.6 mph - N/A   Mist
5:25 AM 44.6 °F 42.2 °F 41.0 °F 87% 30.18 in - ENE 4.6 mph - N/A   Mist
5:37 AM 42.8 °F 39.3 °F 39.2 °F 87% 30.18 in - East 5.8 mph - N/A   Mist
5:43 AM 42.8 °F 39.3 °F 41.0 °F 93% 30.18 in - East 5.8 mph - N/A   Mist
5:50 AM 44.6 °F 41.4 °F 42.8 °F 93% 30.18 in - East 5.8 mph - N/A   Mist
5:55 AM 44.6 °F 41.4 °F 41.0 °F 87% 30.18 in 2.2 mi East 5.8 mph - N/A   Mist
6:07 AM 44.6 °F 41.4 °F 42.8 °F 93% 30.18 in - East 5.8 mph - N/A   Mist
6:19 AM 46.4 °F 43.5 °F 44.6 °F 93% 30.18 in - East 5.8 mph - N/A   Mist
6:25 AM 46.4 °F 43.5 °F 44.6 °F 93% 30.18 in - East 5.8 mph - N/A   Partly Cloudy
6:29 AM 48.2 °F - 44.6 °F 87% 30.18 in 3.1 mi East 5.8 mph - N/A   Partly Cloudy
6:42 AM 48.2 °F - 44.6 °F 87% 30.18 in 3.7 mi East 5.8 mph - N/A   Partly Cloudy
6:55 AM 48.2 °F - 46.4 °F 93% 30.18 in 3.1 mi East 5.8 mph - N/A   Mist
7:21 AM 50.0 °F - 46.4 °F 87% 30.18 in 5.0 mi East 3.5 mph - N/A   Partly Cloudy
7:25 AM 51.8 °F - 46.4 °F 82% 30.18 in 4.3 mi East 3.5 mph - N/A   Partly Cloudy
7:29 AM 51.8 °F - 46.4 °F 82% 30.18 in 5.0 mi East 2.3 mph - N/A   Partly Cloudy
7:35 AM 51.8 °F - 46.4 °F 82% 30.18 in 4.3 mi East 2.3 mph - N/A   Partly Cloudy
7:38 AM 51.8 °F - 46.4 °F 82% 30.18 in 5.0 mi East 2.3 mph - N/A   Mist
7:55 AM 53.6 °F - 46.4 °F 77% 30.18 in 6.2 mi East 5.8 mph - N/A   Partly Cloudy
8:00 AM 54 °F - 46 °F 67% 30.19 in 7 mi ESE 6.7 mph - -   Partly Cloudy
8:19 AM 55.4 °F - 44.6 °F 67% 30.18 in 6.2 mi SE 5.8 mph - N/A   Unknown
8:25 AM 55.4 °F - 44.6 °F 67% 30.18 in 6.2 mi SE 5.8 mph - N/A   Unknown
8:55 AM 57.2 °F - 46.4 °F 67% 30.18 in 6.2 mi SE 4.6 mph - N/A   Unknown
8:58 AM 57.2 °F - 46.4 °F 67% 30.18 in 6.2 mi ESE 4.6 mph - N/A   Unknown
9:25 AM 59.0 °F - 46.4 °F 63% 30.18 in 6.2 mi SE 3.5 mph - N/A   Partly Cloudy
9:55 AM 62.6 °F - 46.4 °F 55% 30.15 in 6.2 mi SE 2.3 mph - N/A   Unknown
10:25 AM 64.4 °F - 46.4 °F 52% 30.15 in 6.2 mi SSE 2.3 mph - N/A   Partly Cloudy
10:33 AM 64.4 °F - 42.8 °F 45% 30.15 in 6.2 mi ESE 2.3 mph - N/A   Unknown
10:55 AM 66.2 °F - 44.6 °F 46% 30.15 in 6.2 mi SSE 2.3 mph - N/A   Partly Cloudy
11:25 AM 68.0 °F - 44.6 °F 43% 30.15 in 6.2 mi South 2.3 mph - N/A   Mostly Cloudy
11:55 AM 66.2 °F - 42.8 °F 43% 30.15 in 6.2 mi SW 2.3 mph - N/A   Partly Cloudy
12:25 PM 68.0 °F - 46.4 °F 46% 30.15 in 6.2 mi SW 3.5 mph - N/A   Unknown
12:55 PM 68.0 °F - 44.6 °F 43% 30.15 in 6.2 mi NE 3.5 mph - N/A   Partly Cloudy
1:25 PM 68.0 °F - 44.6 °F 43% 30.12 in 6.2 mi SW 2.3 mph - N/A   Partly Cloudy
1:55 PM 69.8 °F - 42.8 °F 38% 30.12 in 6.2 mi NNE 2.3 mph - N/A   Unknown
2:00 PM 69 °F - 44 °F 30% 30.14 in 19 mi 2.2 mph - -   Partly Cloudy
2:25 PM 69.8 °F - 44.6 °F 40% 30.12 in 6.2 mi NE 3.5 mph - N/A   Scattered Clouds
2:51 PM 69.8 °F - 50.0 °F 49% 30.12 in 6.2 mi NW 6.9 mph 20.7 mph N/A   Partly Cloudy
2:55 PM 69.8 °F - 51.8 °F 53% 30.12 in 6.2 mi NW 8.1 mph 20.7 mph N/A   Partly Cloudy
3:25 PM 69.8 °F - 50.0 °F 49% 30.09 in 6.2 mi North 11.5 mph - N/A   Scattered Clouds
3:55 PM 68.0 °F - 50.0 °F 52% 30.09 in 6.2 mi North 13.8 mph - N/A   Partly Cloudy
4:00 PM 68.0 °F - 50.0 °F 52% 30.09 in 6.2 mi North 12.7 mph - N/A   Unknown
4:25 PM 68.0 °F - 48.2 °F 49% 30.09 in 6.2 mi North 12.7 mph - N/A   Partly Cloudy
4:55 PM 68.0 °F - 48.2 °F 49% 30.09 in 6.2 mi North 10.4 mph - N/A   Partly Cloudy
5:25 PM 68.0 °F - 48.2 °F 49% 30.09 in 6.2 mi NNE 11.5 mph - N/A   Unknown
5:55 PM 66.2 °F - 46.4 °F 49% 30.09 in 6.2 mi NNE 10.4 mph - N/A   Unknown
6:25 PM 66.2 °F - 46.4 °F 49% 30.09 in 6.2 mi NNE 11.5 mph - N/A   Partly Cloudy
6:55 PM 64.4 °F - 48.2 °F 56% 30.09 in 6.2 mi NNE 9.2 mph - N/A   Partly Cloudy
7:25 PM 62.6 °F - 50.0 °F 63% 30.09 in 6.2 mi NNE 8.1 mph - N/A   Partly Cloudy
7:55 PM 60.8 °F - 48.2 °F 63% 30.09 in 6.2 mi NNE 10.4 mph - N/A   Partly Cloudy
8:00 PM 60 °F - 47 °F 53% 30.10 in 11 mi NNE 8.9 mph - -   Partly Cloudy
8:25 PM 59.0 °F - 48.2 °F 67% 30.09 in 6.2 mi NNE 9.2 mph - N/A   Unknown
8:55 PM 55.4 °F - 46.4 °F 72% 30.09 in 6.2 mi NNE 8.1 mph - N/A   Scattered Clouds
9:25 PM 53.6 °F - 46.4 °F 77% 30.09 in 6.2 mi NNE 6.9 mph - N/A   Unknown
9:55 PM 50.0 °F - 44.6 °F 82% 30.09 in 6.2 mi NNE 8.1 mph - N/A   Unknown
10:25 PM 51.8 °F - 46.4 °F 82% 30.09 in 6.2 mi NNE 6.9 mph - N/A   Unknown
10:55 PM 50.0 °F - 44.6 °F 82% 30.09 in 6.2 mi NE 8.1 mph - N/A   Partly Cloudy
11:25 PM 50.0 °F - 44.6 °F 82% 30.09 in 5.6 mi NE 5.8 mph - N/A   Mist
11:55 PM 50.0 °F - 44.6 °F 82% 30.09 in 5.6 mi NE 5.8 mph - N/A   Mist